Location: *
(43.4667°N, 11.6833°E)
Time: 01:10:05
(UTC+00:00)

S3M - Pass Details

Date: 19 July 2019
Orbit: 948 x 1005 km, 83.0° (Epoch: 24 August)

Event Time Altitude Azimuth Distance (km) Brightness Sun altitude
Exits shadow 23:47:44 58° 202° (SSW) 1,158 4.0 -25.5°
Maximum altitude 23:49:05 82° 278° (W) 1,021 4.0 -25.4°
Drops below altitude 10° 23:55:32 10° 6° (N) 2,788 7.4 -25.3°
Sets 23:58:05 0° 8° (N) 3,740 8.4 -25.2°
